Location: Newark
(42.8200°N, 13.1900°E)
Time: 00:59:55
(UTC+00:00)

Envisat - Visible Passes

Search period start: 02 April 2020 00:00
Search period end: 12 April 2020 00:00
Orbit: 764 x 766 km, 98.1° (Epoch: 01 April)

Date Brightness Start Highest point End Pass type
(mag) Time Alt. Az. Time Alt. Az. Time Alt. Az.
02 Apr 6.6 04:12:16 10° ENE 04:13:49 11° E 04:15:22 10° ESE visible
03 Apr 6.1 18:08:18 10° SW 18:11:23 16° W 18:14:28 10° NW visible
08 Apr 6.4 18:24:11 10° WSW 18:25:44 11° W 18:27:16 10° WNW visible
11 Apr 6.1 18:11:30 10° WSW 18:14:16 15° W 18:17:03 10° NW visible
